EW1379 Weather Reports


Display with metric or nautical units.
time (UTC)temp
F
wind
direction
speed
MPH
gust
MPH
rain 1hr
in
rain 24hr
in
rain mn
in
humidity
%
barometer
mb
20260903040922 69 208 0.0 0.0 0.00 1.89 0.00 95 1011.8
20260903040415 69 208 0.0 0.0 0.00 1.89 0.00 95 1011.8
20260903035905 69 208 0.0 0.0 0.01 1.89 1.89 95 1012.0
20260903035416 69 208 0.0 0.0 0.01 1.89 1.89 95 1012.0
20260903034916 69 208 0.0 0.0 0.02 1.89 1.89 95 1012.1
20260903034421 69 208 0.0 0.0 0.02 1.89 1.89 95 1012.2
20260903033927 69 208 0.0 0.0 0.03 1.89 1.89 95 1012.4
20260903033419 70 208 0.0 0.0 0.03 1.89 1.89 95 1012.4
20260903032919 70 208 0.0 0.0 0.03 1.89 1.89 95 1012.5
20260903032425 70 208 0.0 0.0 0.03 1.89 1.89 95 1012.5
20260903031943 69 208 0.0 0.0 0.03 1.89 1.89 95 1012.5
20260903031427 69 208 0.0 0.0 0.03 1.89 1.89 95 1012.7
20260903030917 69 208 0.0 0.0 0.03 1.89 1.89 95 1012.5
20260903030424 69 208 0.0 0.0 0.04 1.89 1.89 95 1012.8
20260903025949 69 208 0.0 0.0 0.04 1.88 1.88 95 1013.0
20260903025419 69 208 0.0 0.0 0.04 1.88 1.88 95 1012.8
20260903024938 69 209 0.0 0.0 0.03 1.87 1.87 95 1012.9
20260903024411 69 165 0.0 0.0 0.03 1.87 1.87 95 1012.9
20260903023932 69 163 0.0 0.0 0.02 1.86 1.86 95 1013.2
20260903023456 69 163 0.0 0.0 0.02 1.86 1.86 95 1013.9
20260903022923 69 163 0.0 0.0 0.02 1.86 1.86 95 1013.9
20260903022433 69 163 0.0 0.0 0.03 1.86 1.86 95 1013.4
20260903021939 69 148 0.0 1.0 0.03 1.86 1.86 95 1012.4
20260903021419 69 148 0.0 1.0 0.03 1.86 1.86 95 1012.4
20260903020912 69 157 0.0 0.0 0.03 1.85 1.85 95 1012.9
20260903020424 69 148 0.0 0.0 0.03 1.85 1.85 95 1013.4
20260903015926 69 148 0.0 0.0 0.04 1.84 1.84 95 1013.2
20260903015423 69 148 0.0 0.0 0.04 1.84 1.84 95 1013.2
20260903014912 69 148 0.0 0.0 0.05 1.84 1.84 94 1013.1
20260903014458 69 148 0.0 0.0 0.06 1.84 1.84 94 1013.3
20260903013916 69 148 0.0 0.0 0.06 1.84 1.84 94 1013.6
20260903013442 69 148 0.0 0.0 0.07 1.84 1.84 94 1013.8
20260903012912 69 148 0.0 0.0 0.07 1.84 1.84 94 1013.6
20260903012439 69 148 0.0 0.0 0.07 1.83 1.83 94 1013.7
20260903011931 69 150 0.0 0.0 0.08 1.83 1.83 94 1014.0
20260903011417 69 150 0.0 0.0 0.13 1.83 1.83 94 1014.1
20260903010910 70 150 0.0 0.0 0.20 1.82 1.82 94 1014.0
20260903010444 70 140 0.0 0.0 0.31 1.82 1.82 94 1014.7
20260903005928 70 140 0.0 0.0 0.43 1.80 1.80 94 1014.9
20260903005422 70 140 0.0 0.0 0.65 1.79 1.79 94 1014.8
20260903004933 70 140 0.0 0.0 0.90 1.79 1.79 94 1014.5
20260903004435 70 140 0.0 0.0 0.90 1.78 1.78 94 1014.5
20260903003905 70 140 0.0 5.0 0.91 1.78 1.78 94 1013.8
20260903003415 70 140 0.0 5.0 1.01 1.77 1.77 94 1013.1
20260903002415 70 339 2.0 18.0 1.19 1.76 1.76 94 1013.8
20260903001918 70 38 11.0 18.0 1.20 1.75 1.75 93 1013.8
20260903001444 70 333 5.0 23.0 1.25 1.69 1.69 93 1015.0
20260903000921 69 313 8.0 23.0 1.28 1.60 1.61 92 1015.6
20260903000439 70 263 5.0 23.0 1.29 1.49 1.49 91 1014.6
20260902235943 71 286 7.0 27.0 1.16 1.36 1.36 89 1013.7
20260902235417 73 254 8.0 27.0 0.88 1.08 1.08 87 1013.5
20260902234910 75 291 6.0 15.0 0.68 0.88 0.88 88 1014.1
20260902234422 75 134 0.0 10.0 0.68 0.88 0.88 87 1011.0
20260902233931 76 101 4.0 7.0 0.67 0.87 0.87 86 1011.1
20260902233410 77 167 0.0 2.0 0.53 0.73 0.73 84 1012.1
20260902232919 78 167 0.0 2.0 0.43 0.63 0.63 84 1012.4
20260902232433 79 190 0.0 3.0 0.37 0.57 0.57 84 1012.8
20260902231911 79 190 0.0 4.0 0.34 0.54 0.54 84 1012.9
20260902231438 81 153 0.0 2.0 0.24 0.44 0.44 85 1013.3
20260902230918 81 140 0.0 0.0 0.09 0.29 0.29 83 1012.2
20260902230415 82 140 0.0 0.0 0.00 0.20 0.20 82 1011.9
20260902225921 82 140 0.0 0.0 0.00 0.20 0.20 82 1011.9
20260902225425 82 140 0.0 3.0 0.00 0.20 0.20 81 1012.3
20260902224937 82 140 1.0 3.0 0.00 0.20 0.20 81 1011.7
20260902224415 83 140 0.0 0.0 0.00 0.20 0.20 81 1011.9
20260902223953 83 140 0.0 0.0 0.00 0.20 0.20 81 1011.9
20260902223416 83 140 0.0 0.0 0.00 0.20 0.20 80 1012.0
20260902222936 83 140 0.0 0.0 0.00 0.20 0.20 80 1012.0
20260902222433 83 140 0.0 0.0 0.00 0.20 0.20 80 1011.7
20260902221918 83 140 0.0 0.0 0.00 0.20 0.20 80 1011.7
20260902221426 84 140 0.0 0.0 0.00 0.20 0.20 79 1011.9
20260902220938 84 140 0.0 0.0 0.00 0.20 0.20 79 1012.0
20260902220410 84 140 0.0 0.0 0.00 0.20 0.20 79 1012.2
20260902215947 84 140 0.0 0.0 0.00 0.20 0.20 78 1012.1
20260902215428 84 140 0.0 0.0 0.00 0.20 0.20 78 1012.0
20260902214924 84 140 0.0 0.0 0.00 0.20 0.20 78 1011.9
20260902214438 84 140 0.0 0.0 0.00 0.20 0.20 79 1012.1
20260902213915 84 140 0.0 0.0 0.00 0.20 0.20 78 1012.3
20260902213417 85 140 0.0 0.0 0.00 0.20 0.20 77 1012.3
20260902212933 85 140 0.0 0.0 0.00 0.20 0.20 77 1012.3
20260902212405 85 140 0.0 4.0 0.00 0.20 0.20 77 1012.5
20260902211933 85 140 0.0 4.0 0.00 0.20 0.20 77 1012.3
20260902211427 85 144 0.0 2.0 0.00 0.20 0.20 76 1012.4
20260902210934 85 211 0.0 0.0 0.00 0.20 0.20 75 1012.8
20260902210414 85 211 0.0 0.0 0.00 0.20 0.20 74 1012.9
20260902205909 85 211 0.0 0.0 0.00 0.20 0.20 76 1013.2
20260902205417 85 211 0.0 0.0 0.00 0.20 0.20 76 1013.4
20260902204912 85 211 0.0 2.0 0.00 0.20 0.20 76 1013.5
20260902204443 85 211 0.0 2.0 0.00 0.20 0.20 77 1013.6
20260902203935 85 211 1.0 2.0 0.00 0.20 0.20 76 1013.6
20260902203412 85 219 0.0 2.0 0.00 0.20 0.20 77 1013.5
20260902202911 85 218 0.0 2.0 0.00 0.20 0.20 77 1013.8
20260902202417 85 241 1.0 3.0 0.00 0.20 0.20 77 1013.9
20260902201910 85 213 0.0 3.0 0.00 0.20 0.20 76 1013.9
20260902201420 85 254 0.0 0.0 0.00 0.20 0.20 77 1013.9
20260902200912 85 254 0.0 2.0 0.00 0.20 0.20 77 1013.9
20260902200446 85 254 0.0 2.0 0.00 0.20 0.20 78 1014.0
20260902195937 85 246 0.0 5.0 0.00 0.20 0.20 77 1014.0
20260902195427 85 246 0.0 5.0 0.00 0.20 0.20 76 1013.9
20260902194916 85 136 0.0 0.0 0.00 0.20 0.20 77 1014.0
20260902194422 85 136 0.0 0.0 0.00 0.20 0.20 76 1013.9
20260902193927 85 136 0.0 2.0 0.00 0.20 0.20 76 1014.0
20260902193412 85 136 0.0 2.0 0.00 0.20 0.20 76 1013.9
20260902192917 85 122 0.0 2.0 0.00 0.20 0.20 76 1013.8
20260902192425 85 122 0.0 1.0 0.00 0.20 0.20 76 1013.7
20260902191913 85 122 0.0 0.0 0.00 0.20 0.20 76 1013.5
20260902191413 85 122 0.0 1.0 0.00 0.20 0.20 75 1013.5
20260902190909 85 121 0.0 1.0 0.00 0.20 0.20 75 1013.3
20260902190412 85 121 0.0 1.0 0.00 0.20 0.20 76 1013.4
20260902185916 85 121 0.0 5.0 0.00 0.20 0.20 75 1013.4
20260902185411 85 121 0.0 5.0 0.00 0.20 0.20 75 1013.5
20260902184921 85 132 0.0 0.0 0.00 0.20 0.20 75 1013.4
20260902184434 85 132 0.0 0.0 0.00 0.20 0.20 75 1013.4
20260902183925 85 132 0.0 0.0 0.00 0.20 0.20 75 1013.5
20260902183448 85 132 0.0 0.0 0.00 0.20 0.20 75 1013.6
20260902182926 85 132 0.0 4.0 0.00 0.20 0.20 76 1013.7
20260902182411 85 132 0.0 4.0 0.00 0.20 0.20 75 1013.8
20260902181918 85 128 1.0 3.0 0.00 0.20 0.20 74 1014.0
20260902181427 85 134 0.0 3.0 0.00 0.20 0.20 76 1014.2
20260902180940 85 135 0.0 2.0 0.00 0.20 0.20 76 1014.2
20260902180409 85 160 0.0 1.0 0.00 0.20 0.20 74 1014.2
20260902175924 84 138 0.0 1.0 0.00 0.20 0.20 75 1014.4
20260902175428 84 71 0.0 1.0 0.00 0.20 0.20 75 1014.5
20260902174921 84 235 0.0 2.0 0.00 0.20 0.20 76 1014.6
20260902174423 84 235 0.0 2.0 0.00 0.20 0.20 75 1014.6
20260902173908 84 235 0.0 3.0 0.00 0.20 0.20 76 1014.6
20260902173431 83 241 0.0 3.0 0.00 0.20 0.20 75 1014.6
20260902172913 83 180 0.0 3.0 0.00 0.20 0.20 76 1014.6
20260902172420 83 148 0.0 7.0 0.00 0.20 0.20 77 1014.5
20260902171927 83 165 2.0 7.0 0.00 0.20 0.20 78 1014.5
20260902171417 82 103 1.0 9.0 0.00 0.20 0.20 79 1014.6
20260902170924 82 126 3.0 10.0 0.00 0.20 0.20 79 1014.7
20260902170422 82 143 5.0 11.0 0.00 0.20 0.20 80 1014.7
20260902165928 82 154 1.0 5.0 0.00 0.20 0.20 81 1014.8
20260902165454 82 155 0.0 0.0 0.00 0.20 0.20 83 1014.9
20260902164933 81 155 0.0 1.0 0.00 0.20 0.20 83 1014.9
20260902164412 80 155 0.0 4.0 0.00 0.20 0.20 86 1015.0
20260902163930 80 146 1.0 7.0 0.00 0.20 0.20 89 1014.9
20260902163411 79 126 2.0 8.0 0.00 0.20 0.20 91 1014.9
20260902162906 78 138 1.0 9.0 0.00 0.20 0.20 92 1015.1
20260902162416 78 124 1.0 9.0 0.00 0.20 0.20 93 1015.1
20260902161946 77 123 1.0 9.0 0.00 0.20 0.20 94 1015.2
20260902161409 77 140 3.0 9.0 0.00 0.20 0.20 95 1015.3
20260902160936 76 119 2.0 8.0 0.00 0.20 0.20 96 1015.3
20260902160409 76 130 0.0 5.0 0.00 0.20 0.20 97 1015.2
20260902155916 75 128 2.0 7.0 0.00 0.20 0.20 97 1015.2
20260902155408 75 138 3.0 9.0 0.00 0.20 0.20 97 1015.5
20260902154914 75 125 2.0 7.0 0.00 0.20 0.20 97 1015.4
20260902154431 74 121 4.0 8.0 0.00 0.20 0.20 97 1015.6
20260902153932 74 88 5.0 8.0 0.00 0.20 0.20 97 1015.5
20260902153416 74 103 3.0 9.0 0.00 0.20 0.20 97 1015.5
20260902152951 74 149 6.0 9.0 0.00 0.20 0.20 97 1015.4
20260902152441 74 120 1.0 8.0 0.00 0.20 0.20 97 1015.5
20260902151927 74 107 3.0 8.0 0.00 0.20 0.20 97 1015.5
20260902151426 74 116 4.0 7.0 0.00 0.20 0.20 97 1015.5
20260902150918 74 142 2.0 7.0 0.00 0.20 0.20 97 1015.4
20260902150426 74 148 0.0 6.0 0.00 0.20 0.20 98 1015.3
20260902145927 74 132 1.0 6.0 0.00 0.20 0.20 97 1015.2
20260902145414 73 344 3.0 8.0 0.00 0.20 0.20 97 1015.0
20260902144940 73 12 5.0 8.0 0.00 0.20 0.20 98 1014.9
20260902144433 73 36 3.0 5.0 0.00 0.20 0.20 97 1015.2
20260902143933 72 89 3.0 5.0 0.00 0.20 0.20 97 1015.4
20260902143411 72 128 1.0 5.0 0.01 0.20 0.20 97 1015.5
20260902142912 72 78 1.0 5.0 0.02 0.20 0.20 97 1015.9
20260902142406 72 18 1.0 7.0 0.08 0.20 0.20 97 1016.1
20260902141926 72 31 1.0 7.0 0.09 0.20 0.20 97 1016.1
20260902141424 72 48 2.0 4.0 0.10 0.20 0.20 97 1016.2
20260902140934 72 28 2.0 7.0 0.12 0.20 0.20 97 1016.5
20260902140406 72 344 4.0 7.0 0.14 0.20 0.20 97 1016.7
20260902135914 71 108 0.0 0.0 0.15 0.20 0.20 97 1016.6
20260902135426 71 109 0.0 0.0 0.16 0.20 0.20 97 1016.2
20260902134926 71 109 0.0 0.0 0.19 0.20 0.20 97 1016.3
20260902134446 71 109 0.0 0.0 0.19 0.20 0.20 97 1016.1
20260902133915 71 109 0.0 0.0 0.19 0.20 0.20 97 1016.1
20260902133413 71 109 0.0 0.0 0.19 0.19 0.19 97 1016.0
20260902132931 71 355 0.0 0.0 0.17 0.17 0.17 97 1016.0
20260902132414 71 355 0.0 0.0 0.12 0.12 0.12 97 1016.3
20260902131921 71 355 0.0 0.0 0.11 0.11 0.11 97 1016.5
20260902131449 71 355 0.0 0.0 0.10 0.10 0.10 97 1016.4
20260902130920 71 355 0.0 0.0 0.08 0.08 0.08 97 1016.3
20260902130423 71 355 0.0 0.0 0.06 0.06 0.06 97 1016.2
20260902125927 71 355 0.0 0.0 0.05 0.05 0.05 97 1016.2
20260902125437 71 355 0.0 0.0 0.04 0.04 0.04 97 1016.0
20260902124925 71 355 0.0 0.0 0.01 0.01 0.01 97 1016.0
20260902124426 71 355 0.0 0.0 0.01 0.01 0.01 96 1015.5
20260902123907 71 355 0.0 0.0 0.00 0.00 0.00 96 1015.5
20260902123410 71 355 0.0 0.0 0.00 0.00 0.00 96 1015.7
20260902122933 71 355 0.0 0.0 0.00 0.00 0.00 97 1015.7
20260902122412 71 355 0.0 0.0 0.00 0.00 0.00 96 1016.0
20260902121940 71 355 0.0 0.0 0.00 0.00 0.00 96 1015.6
20260902121414 71 360 0.0 0.0 0.00 0.00 0.00 96 1015.0
20260902120910 71 25 0.0 2.0 0.00 0.00 0.00 96 1014.8
20260902120425 71 101 0.0 2.0 0.00 0.00 0.00 96 1015.1
20260902115927 71 101 0.0 1.0 0.00 0.00 0.00 96 1014.8
20260902115415 71 101 0.0 0.0 0.00 0.00 0.00 96 1015.0
20260902114924 71 101 0.0 0.0 0.00 0.00 0.00 96 1014.9
20260902114431 71 101 0.0 3.0 0.00 0.00 0.00 96 1014.8
20260902113924 71 94 1.0 5.0 0.00 0.00 0.00 96 1014.3
20260902113411 71 117 1.0 3.0 0.00 0.00 0.00 96 1014.0
20260902112918 70 126 0.0 5.0 0.00 0.00 0.00 96 1014.0
20260902112433 70 119 1.0 5.0 0.00 0.00 0.00 96 1014.1
20260902111915 70 128 0.0 3.0 0.00 0.00 0.00 96 1014.2
20260902111444 70 131 0.0 2.0 0.00 0.00 0.00 96 1014.4
20260902110922 70 131 0.0 3.0 0.00 0.00 0.00 96 1014.5
20260902110448 70 131 1.0 7.0 0.00 0.00 0.00 96 1014.3
20260902105923 70 132 2.0 7.0 0.00 0.00 0.00 96 1014.1
20260902105431 70 133 1.0 4.0 0.00 0.00 0.00 96 1014.2
20260902104927 70 129 0.0 3.0 0.00 0.00 0.00 96 1014.3
20260902104445 70 105 0.0 4.0 0.00 0.00 0.00 96 1014.3
20260902103924 70 120 1.0 4.0 0.00 0.00 0.00 96 1014.2
20260902103427 70 130 0.0 2.0 0.00 0.00 0.00 96 1014.1
20260902102931 70 123 0.0 0.0 0.00 0.00 0.00 96 1014.2
20260902102412 70 114 0.0 0.0 0.00 0.00 0.00 96 1014.2
20260902101923 70 118 0.0 3.0 0.00 0.00 0.00 96 1014.3
20260902101412 70 124 1.0 6.0 0.00 0.00 0.00 96 1014.2
20260902100932 70 114 1.0 8.0 0.00 0.00 0.00 96 1014.4
20260902100417 70 111 5.0 8.0 0.00 0.00 0.00 96 1014.2
20260902095910 70 109 4.0 7.0 0.00 0.00 0.00 96 1014.3
20260902095411 69 126 3.0 7.0 0.00 0.00 0.00 96 1014.5
20260902094937 69 113 2.0 5.0 0.00 0.00 0.00 96 1014.7
20260902094417 68 134 0.0 0.0 0.00 0.00 0.00 95 1014.9
20260902093910 68 123 0.0 0.0 0.00 0.00 0.00 95 1015.0
20260902093416 68 123 0.0 0.0 0.00 0.00 0.00 95 1015.0
20260902092907 68 123 0.0 0.0 0.00 0.00 0.00 95 1014.9
20260902092411 68 123 0.0 0.0 0.00 0.00 0.00 95 1014.8
20260902091931 68 125 0.0 0.0 0.00 0.00 0.00 95 1014.7
20260902091500 68 125 0.0 0.0 0.00 0.00 0.00 95 1014.8
20260902090928 68 125 0.0 0.0 0.00 0.00 0.00 95 1014.9
20260902090418 68 125 0.0 0.0 0.00 0.00 0.00 95 1014.9
20260902085936 68 125 0.0 0.0 0.00 0.01 0.00 95 1014.9
20260902085418 68 125 0.0 0.0 0.00 0.01 0.00 95 1014.8
20260902084925 68 125 0.0 0.0 0.00 0.01 0.00 95 1014.9
20260902084430 68 125 0.0 0.0 0.00 0.01 0.00 95 1014.9
20260902083924 68 125 0.0 0.0 0.00 0.01 0.00 94 1015.0
20260902083500 68 125 0.0 0.0 0.00 0.01 0.00 94 1015.2
20260902082923 68 125 0.0 0.0 0.00 0.01 0.00 94 1015.3
20260902082408 68 125 0.0 0.0 0.00 0.01 0.00 94 1015.3
20260902081909 68 125 0.0 0.0 0.00 0.01 0.00 94 1015.4
20260902081412 68 125 0.0 0.0 0.00 0.01 0.00 95 1015.3
20260902080922 68 125 0.0 0.0 0.00 0.01 0.00 94 1015.3
20260902080432 68 125 0.0 0.0 0.00 0.01 0.00 95 1015.4
20260902075925 68 125 0.0 0.0 0.00 0.01 0.00 94 1015.3
20260902075405 68 125 0.0 0.0 0.00 0.01 0.00 94 1015.4
20260902074943 69 125 0.0 0.0 0.00 0.01 0.00 94 1015.3
20260902074430 69 125 0.0 0.0 0.00 0.01 0.00 94 1015.4
20260902073928 69 125 0.0 0.0 0.00 0.01 0.00 94 1015.4
20260902073438 69 125 0.0 0.0 0.00 0.01 0.00 94 1015.4
20260902072913 69 125 0.0 0.0 0.00 0.01 0.00 94 1015.4
20260902072444 69 125 0.0 0.0 0.00 0.01 0.00 94 1015.3
20260902071923 69 125 0.0 0.0 0.00 0.01 0.00 94 1015.4
20260902071442 69 125 0.0 0.0 0.00 0.01 0.00 94 1015.5
20260902070915 69 125 0.0 0.0 0.00 0.01 0.00 94 1015.5
20260902070442 69 125 0.0 0.0 0.00 0.01 0.00 94 1015.4
20260902065912 69 125 0.0 0.0 0.00 0.01 0.00 94 1015.3
20260902065436 69 125 0.0 1.0 0.00 0.01 0.00 94 1015.1
20260902064931 69 125 0.0 1.0 0.00 0.01 0.00 94 1015.0
20260902064426 69 125 0.0 0.0 0.00 0.01 0.00 94 1015.2
20260902063933 69 125 0.0 0.0 0.00 0.01 0.00 94 1015.3
20260902063425 69 125 0.0 0.0 0.00 0.01 0.00 94 1015.4
20260902062939 70 125 0.0 0.0 0.00 0.01 0.00 94 1015.4
20260902062416 70 125 0.0 0.0 0.00 0.01 0.00 94 1015.5
20260902061937 70 125 0.0 0.0 0.00 0.01 0.00 94 1015.6
20260902061430 70 125 0.0 0.0 0.00 0.01 0.00 94 1015.6
20260902060914 70 125 0.0 0.0 0.00 0.01 0.00 94 1015.6
20260902060414 70 125 0.0 0.0 0.00 0.01 0.00 94 1015.6
20260902055947 70 125 0.0 0.0 0.00 0.06 0.00 94 1015.7
20260902055438 70 125 0.0 0.0 0.00 0.06 0.00 94 1015.7
20260902054916 70 125 0.0 0.0 0.00 0.06 0.00 94 1015.6
20260902054417 70 125 0.0 4.0 0.00 0.06 0.00 94 1015.8
20260902053922 70 125 1.0 4.0 0.00 0.06 0.00 94 1015.7
20260902053414 70 122 2.0 4.0 0.00 0.06 0.00 94 1015.7
20260902052920 70 118 0.0 3.0 0.00 0.06 0.00 94 1015.8
20260902052445 70 115 0.0 2.0 0.00 0.06 0.00 94 1015.7
20260902051915 70 115 0.0 2.0 0.00 0.06 0.00 94 1015.8
20260902051436 70 88 0.0 0.0 0.00 0.06 0.00 94 1015.7
20260902050916 70 75 0.0 0.0 0.00 0.06 0.00 94 1015.8
20260902050408 70 75 0.0 0.0 0.00 0.06 0.00 93 1015.7
20260902045914 71 77 0.0 0.0 0.00 0.06 0.00 93 1015.6
20260902045409 71 77 0.0 0.0 0.00 0.06 0.00 93 1015.6
20260902044917 71 77 0.0 0.0 0.00 0.06 0.00 93 1015.7
20260902044433 71 77 0.0 0.0 0.00 0.06 0.00 93 1015.7
20260902043916 71 77 0.0 0.0 0.00 0.06 0.00 93 1015.6
20260902043446 71 76 0.0 0.0 0.00 0.06 0.00 93 1015.8
20260902042927 71 76 0.0 0.0 0.00 0.06 0.00 93 1015.7
20260902042420 71 77 0.0 0.0 0.00 0.06 0.00 93 1015.6
20260902041926 71 77 0.0 0.0 0.00 0.06 0.00 93 1015.6
20260902041414 71 76 0.0 0.0 0.00 0.06 0.00 93 1015.6